CAPE
0 0 0 0 0 0 0 0 0 0 0 0 0 0 0 0 0 0 0 0 0 0 0 0 0 0 0 0 0 0 0 0 0 0 0 0 0 0 0 0 0 0 0
0 0 0 0 0 0 0 0 0 0 0 0 0 0 0 0 0 0 0 0 0 0 0 0 0 0 0 0 0 0 0 0 0 0 0 0 0 0 0 0 0 0 0
0 0 0 0 0 0 0 0 0 0 0 0 0 0 0 0 0 0 0 0 0 0 0 0 0 0 0 0 0 0 0 0 0 0 0 0 0 0 0 0 0 0 0
0 0 0 0 0 0 0 0 0 0 0 0 0 0 0 0 0 0 0 0 0 0 0 0 0 0 0 0 0 0 0 0 0 0 0 0 0 0 0 0 0 0 0
0 0 0 0 0 0 0 0 0 0 0 0 0 0 0 0 0 0 0 0 0 0 0 0 0 0 0 0 0 0 0 0 0 0 0 0 0 0 0 0 0 0 0
0 0 0 0 0 0 0 0 0 0 0 0 0 0 0 0 0 0 0 0 0 0 0 0 0 0 0 0 0 0 0 0 0 0 0 0 0 0 0 0 0 0 0
0 0 0 0 0 0 0 0 0 0 0 0 0 0 0 0 0 0 0 0 0 0 0 0 0 0 0 0 0 0 0 0 0 0 0 0 0 0 0 0 0 0 0
0 0 0 0 0 0 0 0 0 0 0 0 0 0 0 0 0 0 0 0 0 0 0 0 0 0 0 0 0 0 0 0 0 0 0 0 0 0 0 0 0 0 0
0 0 0 0 0 0 0 0 0 0 0 0 0 0 0 0 0 0 0 0 0 0 0 0 0 0 0 0 0 0 0 0 0 0 0 0 0 0 0 0 0 0 0
0 0 0 0 0 0 0 0 0 0 0 0 0 0 0 0 0 0 0 0 0 0 0 0 0 0 0 0 0 0 0 0 0 0 0 0 0 0 0 0 0 0 0
0 0 0 0 0 0 0 0 0 0 0 0 0 0 0 0 0 0 0 0 0 0 0 0 0 0 0 0 0 0 0 0 0 0 0 0 0 0 0 0 0 0 0
0 0 0 0 0 0 0 0 0 0 0 0 0 0 0 0 0 0 3 10 0 0 0 0 0 0 0 0 0 0 0 0 0 0 0 0 0 0 0 0 0 0 0
0 0 0 0 0 0 0 0 0 0 0 0 0 0 0 0 0 0 1 11 4 0 0 0 0 0 1 0 3 0 0 0 0 0 0 0 0 0 0 0 0 0 0
0 0 0 0 0 0 0 0 0 0 0 0 0 0 0 0 0 0 0 0 3 1 1 0 0 1 0 0 0 0 0 0 0 0 0 0 0 0 0 0 0 0 0
0 0 0 0 0 0 0 0 0 0 1 0 0 1 2 1 0 1 2 0 0 0 0 0 0 0 0 0 0 0 0 0 0 0 0 0 0 0 0 0 0 0 0
0 0 0 0 0 0 0 0 1 4 5 8 10 8 6 19 8 15 13 28 26 7 0 0 0 0 0 0 0 0 0 0 0 0 0 0 0 0 0 0 0 0 0
0 0 0 0 0 0 0 0 0 0 4 4 4 6 11 40 30 20 33 27 45 12 0 0 0 0 0 0 0 0 0 0 0 0 0 0 0 0 0 0 0 0 0
0 0 0 0 0 0 0 0 1 0 0 0 1 6 7 20 20 39 22 26 8 9 0 0 0 0 0 0 0 0 0 0 0 0 0 0 0 0 0 0 0 0 0
0 0 0 0 0 0 0 0 0 1 0 1 1 1 3 15 19 34 35 6 2 0 0 0 0 0 0 0 0 0 0 0 0 0 0 0 0 0 0 0 0 0 0
0 0 0 0 0 0 0 0 0 0 0 0 1 1 0 0 1 0 0 0 0 0 0 0 0 0 0 0 0 0 0 0 0 0 0 0 0 0 0 0 0 0 0
0 0 0 0 0 0 0 0 0 0 0 0 1 0 21 1 0 0 0 0 0 0 0 0 0 0 0 0 0 0 0 0 0 0 0 0 0 0 0 0 0 0 0
0 0 0 0 0 0 0 0 0 0 0 0 0 0 8 0 0 0 0 0 0 0 0 0 0 0 0 0 0 0 0 0 0 0 0 0 0 0 0 0 0 0 0
0 0 0 0 0 0 0 0 0 0 0 0 0 0 0 0 0 0 0 0 0 0 0 0 0 0 0 0 0 0 0 0 0 0 0 0 0 0 0 0 0 0 0
0 0 0 0 0 0 0 0 0 0 0 0 0 0 0 0 0 0 0 0 0 0 0 0 0 0 0 0 0 0 0 0 0 0 0 0 0 0 0 0 0 0 0
0 0 0 0 0 0 0 0 0 0 0 0 0 0 0 0 0 0 0 0 0 0 0 0 0 0 0 0 0 0 0 0 0 0 0 0 0 0 0 0 0 0 0
0 0 0 0 0 0 0 0 0 0 0 0 0 0 0 0 0 0 0 0 0 0 0 0 0 0 0 0 0 0 0 0 0 0 0 0 0 0 0 0 0 0 0
CIN
-0 -0 -0 -0 -0 -0 -0 -0 -0 -0 -0 -0 -0 -0 -0 -0 -0 -0 -0 -0 -0 -0 -0 -0 -0 -0 -0 -0 -0 -0 -0 -0 -0 -0 -0 -0 -0 -0 -0 -0 -0 -0 -0
-0 -0 -0 -0 -0 -0 -0 -0 -0 -0 -0 -0 -0 -0 -0 -0 -0 -0 -0 -0 -0 -0 -0 -0 -0 -0 -0 -0 -0 -0 -0 -0 -0 -0 -0 -0 -0 -0 -0 -0 -0 -0 -0
-0 -0 -0 -0 -0 -0 -0 -0 -0 -0 -0 -0 -0 -0 -0 -0 -0 -0 -0 -0 -0 -0 -0 -0 -0 -0 -0 -0 -0 -0 -0 -0 -0 -0 -0 -0 -0 -0 -0 -0 -0 -0 -0
-0 -0 -0 -0 -0 -0 -0 -0 -0 -0 -0 -0 -0 -0 -0 -0 -0 -0 -0 -0 -0 -0 -0 -0 -0 -0 -0 -0 -0 -0 -0 -0 -0 -0 -0 -0 -0 -0 -0 -0 -0 -0 -0
-0 -0 -0 -0 -0 -0 -0 -0 -0 -0 -0 -0 -0 -0 -0 -0 -0 -0 -0 -0 -0 -0 -0 -0 -0 -0 -0 -0 -0 -0 -0 -0 -0 -0 -0 -0 -0 -0 -0 -0 -0 -0 -0
-0 -0 -0 -0 -0 -0 -0 -0 -0 -0 -0 -0 -0 -0 -0 -0 -0 -0 -0 -0 -0 -0 -0 -0 -0 -0 -0 -0 -0 -0 -0 -0 -0 -0 -0 -0 -0 -0 -0 -0 -0 -0 -0
-0 -0 -0 -0 -0 -0 -0 -0 -0 -0 -0 -0 -0 -0 -0 -0 -0 -0 -0 -0 -0 -0 -0 -0 -0 -0 -0 -0 -0 -0 -0 -0 -0 -0 -0 -0 -0 -0 -0 -0 -0 -0 -0
-0 -0 -0 -0 -0 -0 -0 -0 -0 -0 -0 -0 -0 -0 -0 -0 -0 -0 -0 -0 -0 -0 -0 -0 -0 -0 -0 -0 -0 -0 -0 -0 -0 -0 -0 -0 -0 -0 -0 -0 -0 -0 -0
-0 -0 -0 -0 -0 -0 -0 -0 -0 -0 -0 -0 -0 -0 -0 -0 -0 -0 -0 -0 -0 -0 -0 -0 -0 -0 -0 -0 -0 -0 -0 -0 -0 -0 -0 -0 -0 -0 -0 -0 -0 -0 -0
-0 -0 -0 -0 -0 -0 -0 -0 -0 -0 -0 -0 -0 -0 -0 -0 -0 -0 -0 -0 -0 -0 -0 -0 -0 -0 -0 -0 -0 -0 -0 -0 -0 -0 -0 -0 -0 -0 -0 -0 -0 -0 -0
-0 -0 -0 -0 -0 -0 -0 -0 -0 -0 -0 -0 -0 -0 -0 -0 -0 -0 -0 -0 -0 -0 -0 -0 -0 -0 -0 -0 -0 -0 -0 -0 -0 -0 -0 -0 -0 -0 -0 -0 -0 -0 -0
-0 -0 -0 -0 -0 -0 -0 -0 -0 -0 -0 -0 -0 -0 -0 -0 -0 -0 -0 -0 -0 -0 -0 -0 -0 -0 -0 -0 -0 -0 -0 -0 -0 -0 -0 -0 -0 -0 -0 -0 -0 -0 -0
-0 -0 -0 -0 -0 -0 -0 -0 -0 -0 -0 -0 -0 -0 -0 -0 -0 -0 -0 -0 -0 -0 -0 -0 -0 -0 -0 -0 -0 -0 -0 -0 -0 -0 -0 -0 -0 -0 -0 -0 -0 -0 -0
-0 -0 -0 -0 -0 -0 -0 -0 -0 -0 -0 -0 -0 -0 -0 -0 -0 -0 -0 -0 -0 -0 -0 -0 -0 -0 -0 -0 -0 -0 -0 -0 -0 -0 -0 -0 -0 -0 -0 -0 -0 -0 -0
-0 -0 -0 -0 -0 -0 -0 -0 -0 -0 -0 -0 -0 -0 -0 -1 -0 -0 -0 -0 -0 -0 -0 -0 -0 -0 -0 -0 -0 -0 -0 -0 -0 -0 -0 -0 -0 -0 -0 -0 -0 -0 -0
-0 -0 -0 -0 -0 -0 -0 -0 -0 -0 -0 -0 -0 -0 -1 -0 -0 -0 -0 -0 -0 -0 -0 -0 -0 -0 -0 -0 -0 -0 -0 -0 -0 -0 -0 -0 -0 -0 -0 -0 -0 -0 -0
-0 -0 -0 -0 -0 -0 -0 -1 -0 -0 -0 -0 -0 -0 -0 -0 -0 -0 -0 -0 -0 -0 -0 -0 -0 -0 -0 -0 -0 -0 -0 -0 -0 -0 -0 -0 -0 -0 -0 -0 -0 -0 -0
-0 -0 -0 -0 -0 -0 -0 -0 -0 -1 -0 -0 -0 -0 -0 -0 -0 -0 -0 -0 -0 -0 -0 -0 -0 -0 -0 -0 -0 -0 -0 -0 -0 -0 -0 -0 -0 -0 -0 -0 -0 -0 -0
-0 -0 -0 -0 -0 -0 -0 -0 -1 -1 -1 -1 -1 -0 -0 -0 -0 -0 -0 -0 -1 -0 -0 -0 -0 -0 -0 -0 -0 -0 -0 -0 -0 -0 -0 -0 -0 -0 -0 -0 -0 -0 -0
-0 -0 -0 -0 -0 -0 -0 -0 -0 -1 -1 -1 -1 -0 -0 -0 -1 -0 -0 -0 -0 -0 -0 -0 -0 -0 -0 -0 -0 -0 -0 -0 -0 -0 -0 -0 -0 -0 -0 -0 -0 -0 -0
-0 -0 -0 -0 -0 -0 -0 -0 -0 -0 -0 -1 -0 -0 -0 -0 -0 -0 -0 -0 -0 -0 -0 -0 -0 -0 -0 -0 -0 -0 -0 -0 -0 -0 -0 -0 -0 -0 -0 -0 -0 -0 -0
-0 -0 -0 -0 -0 -0 -0 -0 -0 -0 -0 -0 -0 -0 -0 -0 -0 -0 -0 -0 -0 -0 -0 -0 -0 -0 -0 -0 -0 -0 -0 -0 -0 -0 -0 -0 -0 -0 -0 -0 -0 -0 -0
-0 -0 -0 -0 -0 -0 -0 -0 -0 -0 -0 -0 -0 -0 -0 -0 -0 -0 -0 -0 -0 -0 -0 -0 -0 -0 -0 -0 -0 -0 -0 -0 -0 -0 -0 -0 -0 -0 -0 -0 -0 -0 -0
-0 -0 -0 -0 -0 -0 -0 -0 -0 -0 -0 -0 -0 -0 -0 -0 -0 -0 -0 -0 -0 -0 -0 -0 -0 -0 -0 -0 -0 -0 -0 -0 -0 -0 -0 -0 -0 -0 -0 -0 -0 -0 -0
-0 -0 -0 -0 -0 -0 -0 -0 -0 -0 -0 -0 -0 -0 -0 -0 -0 -0 -0 -0 -0 -0 -0 -0 -0 -0 -0 -0 -0 -0 -0 -0 -0 -0 -0 -0 -0 -0 -0 -0 -0 -0 -0
-0 -0 -0 -0 -0 -0 -0 -0 -0 -0 -0 -0 -0 -0 -0 -0 -0 -0 -0 -0 -0 -0 -0 -0 -0 -0 -0 -0 -0 -0 -0 -0 -0 -0 -0 -0 -0 -0 -0 -0 -0 -0 -0
Wind_Speed
5 5 6 7 7 7 6 6 6 6 6 6 6 7 7 7 6 6 6 7 7 6 5 6 6 6 4 4 3 2 3 3 4 1 2 3 4 5 4 4 5 4 3
6 6 7 7 6 6 7 7 6 8 6 7 7 7 7 7 7 8 8 7 8 8 7 7 7 5 6 5 4 5 5 4 4 5 3 3 3 4 4 5 4 4 3
7 7 7 8 7 8 8 8 7 7 7 7 7 9 9 10 10 10 10 9 10 10 10 10 10 9 8 5 4 5 4 4 3 4 4 2 3 3 3 3 3 3 2
12 9 8 9 9 8 8 8 9 8 8 9 9 9 9 9 10 9 10 10 10 10 10 10 10 11 10 9 7 7 5 5 4 5 3 4 3 3 2 3 3 1 1
12 11 11 12 12 9 8 8 9 8 10 10 9 9 9 9 9 8 7 7 9 7 7 8 9 9 12 12 8 8 8 6 4 5 4 3 4 4 5 4 3 3 2
10 10 11 12 12 11 11 11 8 9 9 8 10 11 11 10 14 15 13 10 9 10 10 7 6 9 13 16 15 16 12 11 9 6 5 6 5 4 4 5 4 3 3
10 9 9 9 11 11 10 10 11 12 10 11 13 11 14 13 16 18 18 10 11 11 12 10 9 6 10 9 14 15 13 15 10 7 9 5 6 6 8 7 5 4 3
9 9 10 12 13 12 12 11 11 8 11 12 13 12 13 13 19 20 18 12 11 12 12 12 13 11 12 12 11 9 6 4 4 3 5 6 5 8 7 4 5 5 3
10 12 12 12 14 15 15 14 12 10 11 11 13 13 13 16 18 21 17 12 12 12 11 12 13 13 18 21 13 11 8 6 7 10 13 13 14 13 10 7 4 4 1
13 14 13 12 13 15 15 15 12 12 13 10 12 12 14 16 17 22 20 10 13 10 11 12 18 15 23 25 12 13 11 9 9 7 8 11 10 8 11 4 6 4 3
14 14 14 13 14 14 15 12 13 13 13 13 13 12 13 13 14 23 26 13 12 10 9 9 10 23 24 25 19 12 12 13 14 9 7 6 6 5 4 4 4 4 4
14 15 15 14 12 12 15 15 14 13 13 13 12 12 9 11 17 22 25 28 19 10 10 8 9 23 24 26 20 18 19 16 8 7 7 6 6 6 5 4 4 3 3
14 14 14 15 13 12 14 14 13 12 11 12 10 10 10 7 8 22 24 27 26 13 9 13 18 24 24 23 24 22 17 10 9 8 7 6 5 6 8 6 4 5 4
13 14 14 14 15 13 11 10 11 10 11 10 11 10 10 8 8 8 10 13 22 17 17 12 16 19 20 15 13 13 7 8 8 7 6 5 5 6 5 5 4 4 2
13 13 13 11 13 14 12 11 11 12 13 13 12 11 11 12 9 13 12 10 10 10 8 6 8 9 10 8 9 9 8 7 6 5 6 6 6 6 5 5 4 3 3
13 11 11 11 11 11 12 14 17 23 25 25 27 22 12 20 23 19 22 22 18 21 9 9 10 9 10 9 9 9 7 9 7 6 6 6 7 6 5 4 3 3 4
11 12 10 11 10 11 12 12 16 15 23 24 24 24 28 25 25 21 19 23 22 22 11 11 10 11 8 9 9 9 8 7 8 6 6 6 5 5 7 6 6 5 4
9 12 9 10 10 10 11 12 12 13 16 12 16 21 21 26 27 24 17 17 10 17 9 8 8 8 9 9 9 8 8 8 7 7 7 7 7 7 6 6 7 6 5
9 8 9 9 10 12 10 11 11 12 12 13 12 14 16 21 25 16 14 7 8 8 8 8 7 7 7 7 7 7 9 9 8 7 7 6 6 6 6 6 6 8 6
8 12 11 9 10 10 9 10 11 11 12 11 11 11 10 11 8 4 2 5 6 2 7 9 8 8 8 7 8 8 7 8 7 7 6 6 6 6 6 6 6 5 5
7 8 11 7 8 9 9 10 10 10 11 11 11 10 24 12 7 4 3 4 3 3 7 7 8 8 8 8 7 7 7 7 7 6 6 6 6 6 6 5 5 5 4
8 8 9 9 9 9 9 9 9 10 10 10 10 9 20 6 6 4 4 4 5 5 4 5 6 6 6 7 7 7 7 7 6 6 6 6 5 5 5 5 5 4 4
8 9 9 8 8 10 9 8 8 8 9 9 9 9 8 6 5 4 4 4 4 4 5 5 5 5 4 4 4 5 6 6 6 6 6 6 6 6 5 5 5 4 5
7 9 9 9 8 8 8 9 8 9 8 8 8 7 6 6 5 5 4 3 3 3 3 3 3 4 4 3 2 2 2 3 4 5 7 6 6 6 4 4 4 5 4
6 7 8 8 8 8 9 8 8 8 7 7 6 6 6 5 5 4 3 3 3 2 2 2 2 2 1 3 3 4 4 6 4 5 4 5 6 7 6 5 4 3 4
5 6 7 7 7 8 8 8 8 8 8 7 6 5 5 5 4 4 3 3 3 2 3 1 1 2 3 3 4 4 5 7 6 8 5 5 5 5 5 4 7 3 5
Wind_Direction
308 294 293 289 297 299 287 274 267 264 239 225 218 220 223 221 214 207 206 200 199 196 193 189 191 173 182 182 173 160 166 152 133 178 123 144 143 153 138 136 129 141 143
280 278 277 278 281 284 280 283 279 268 252 235 227 224 220 217 213 212 212 204 199 199 196 188 195 181 190 187 181 181 179 174 140 151 146 154 146 165 153 140 143 140 162
321 302 295 284 274 263 260 257 256 256 250 245 234 231 229 225 219 217 212 206 205 199 194 193 191 183 189 178 180 182 173 166 166 139 145 136 123 145 141 125 142 120 169
340 314 297 287 277 269 269 259 255 246 243 237 233 234 232 234 231 229 225 219 215 210 202 198 192 193 188 181 180 186 169 164 165 148 139 142 131 154 134 144 160 121 164
338 340 327 316 305 297 286 274 268 245 244 240 241 238 236 229 230 220 217 216 214 208 203 207 201 192 185 185 177 187 174 172 164 166 148 149 162 159 178 159 144 139 57
338 335 333 333 328 314 306 296 276 266 258 242 238 238 237 238 237 218 206 212 210 207 208 203 185 184 194 189 188 191 185 178 185 172 173 188 177 150 138 150 133 147 198
330 329 327 327 323 319 309 302 295 281 266 250 253 240 241 237 228 218 212 220 214 208 198 186 183 189 164 171 187 189 196 203 198 184 182 174 163 169 147 153 163 152 151
324 326 328 329 320 315 313 303 298 278 264 264 259 244 247 245 225 218 210 216 223 221 210 193 189 182 182 165 161 156 155 144 158 172 158 142 130 152 158 141 142 103 77
336 330 327 327 318 316 312 310 301 288 276 262 259 252 242 250 235 224 206 211 221 220 213 201 193 189 187 178 169 165 157 152 143 135 131 135 140 146 136 120 127 121 134
330 318 318 314 312 309 306 303 300 289 279 274 260 249 240 249 238 227 217 213 224 215 203 204 201 187 189 190 176 169 166 164 150 132 136 135 126 140 152 139 149 154 122
318 314 312 315 311 303 300 299 296 293 284 275 263 257 245 238 238 223 221 208 222 218 208 202 198 197 191 194 188 183 179 155 164 147 138 129 132 134 125 121 138 162 140
318 313 312 312 311 309 302 303 301 295 288 281 273 270 255 243 233 230 224 215 211 213 217 202 193 194 200 200 191 192 184 160 152 152 156 161 161 156 147 126 122 107 65
318 311 311 310 307 304 303 304 304 301 289 285 275 270 270 248 239 235 232 223 213 212 193 191 183 192 202 201 197 191 192 156 159 160 170 174 169 146 134 129 117 101 87
315 316 315 316 315 311 304 299 297 297 293 286 282 275 274 263 242 234 236 237 220 204 197 196 191 196 191 186 185 189 144 154 164 167 164 144 128 137 146 158 158 152 136
321 319 317 315 314 312 306 302 298 292 290 293 287 286 283 273 258 244 231 228 218 196 164 168 184 191 189 170 165 141 138 136 146 155 152 148 151 155 165 165 143 147 166
320 320 320 316 316 310 309 309 302 300 304 300 297 288 278 271 267 259 243 239 226 179 171 180 186 189 190 170 155 146 149 157 163 158 147 157 168 168 163 156 154 162 186
310 310 310 309 308 313 316 312 312 314 309 309 307 303 302 287 287 259 249 240 228 185 190 190 185 186 168 165 163 165 163 165 153 156 163 172 169 169 163 172 178 180 205
301 296 297 305 305 307 310 313 308 311 317 318 314 312 303 300 294 281 247 241 237 203 189 187 185 170 164 168 166 157 152 152 166 168 172 174 175 174 180 186 189 187 187
309 310 313 311 308 309 308 310 310 312 310 312 317 318 317 302 307 289 253 251 250 223 166 165 159 157 157 162 159 156 157 165 170 171 176 175 177 171 188 191 194 191 172
315 306 309 307 313 316 317 318 317 317 315 315 318 320 320 314 293 287 302 295 280 202 160 157 148 148 153 155 155 156 158 162 164 170 175 179 181 180 190 186 185 181 189
305 312 310 303 315 315 314 320 317 314 316 318 316 315 319 329 331 339 13 358 360 123 157 147 148 152 154 153 154 158 160 160 166 173 178 184 174 185 192 183 187 190 158
322 318 318 320 317 317 318 316 314 316 319 319 322 324 337 338 344 354 16 29 15 19 28 120 124 131 139 146 149 150 155 162 167 174 180 178 177 185 176 181 183 176 169
320 314 316 314 312 311 316 316 317 318 318 317 322 326 334 340 348 356 21 20 30 28 27 44 70 85 83 94 110 144 161 174 179 176 179 179 181 185 183 189 186 178 182
315 315 313 313 313 317 317 317 315 315 316 317 322 326 331 338 348 2 10 13 21 34 41 53 60 90 100 102 106 106 106 118 146 175 170 174 180 181 166 165 172 187 177
308 310 312 315 317 316 317 317 316 315 315 314 319 324 326 329 334 344 352 3 14 20 35 47 48 74 144 183 190 192 192 200 166 159 157 164 175 172 180 183 171 172 176
299 306 310 311 314 313 314 314 312 312 312 313 312 314 317 321 324 328 334 336 337 345 334 347 309 258 238 234 229 219 215 217 199 181 168 167 171 176 167 170 175 155 168